{"data":{"norad_id":55438,"intl_designator":"2023-014AZ","name":"STARLINK-5074","alt_names":[],"object_type":"PAYLOAD","status":"ACTIVE","operator":null,"country":"US","launch_date":"2023-01-31","launch_site_code":"AFWTR","launch_vehicle":null,"mission":null,"orbit_class":"UNKNOWN","rcs_meters":null,"size_class":null,"mass_kg":null,"dimensions":null,"purposes":["comms"],"wikipedia_slug":null,"has_3d_model":false,"image_url":null,"decayed_at":null,"tle_current":{"epoch":"2026-09-20T12:27:18.132768Z","epoch_age_seconds":98553,"freshness":"FRESH","line1":"1 55438U 23014AZ  26263.51895987 -.00000124  00000+0 -25922-5 0  9999","line2":"2 55438  69.9974 293.0485 0003811 271.3496  88.7227 14.98329944201243","mean_motion":14.98329944,"eccentricity":0.0003811,"inclination_deg":69.9974,"raan_deg":293.0485,"arg_perigee_deg":271.3496,"mean_anomaly_deg":88.7227,"bstar":-2.5922e-6,"rev_number":20124,"period_min":96.107002717687,"perigee_km":569.40734554307,"apogee_km":574.70478269654,"semimajor_km":6950.1930641198,"source":"CELESTRAK","updated_at":"2026-09-21T09:00:33.224284Z"}}}